When you browse on this site, cookies collect data to enhance your experience and personalize the content and advertising you see.
Visit our Privacy Policy to learn more. By continuing to use the site, you agree to this use of cookies and data.
  • In Portugal
  • List of Countries
  • For 7 days
  • Water Temperature
  • Weather Map
  • Weather Widgets
  • user-avatar
    Login

    Hourly Weather Canberra

    Today, 20 February, Thursday

    Time Temperature Precipitation Wind Pressure Humidity
    00:00 +13°C° 0 mm 1 mps 704 mmHg 81%
    01:00 +12°C° 0 mm 1 mps 704 mmHg 83%
    02:00 +12°C° 0 mm 1 mps 704 mmHg 84%
    03:00 +11°C° 0 mm 1 mps 704 mmHg 85%
    04:00 +11°C° 0 mm 1 mps 704 mmHg 85%
    05:00 +12°C° 0 mm 1 mps 704 mmHg 81%
    06:00 +12°C° 0 mm 1 mps 705 mmHg 77%
    07:00 +13°C° 0 mm 1 mps 705 mmHg 73%
    08:00 +16°C° 0 mm 1 mps 706 mmHg 62%
    09:00 +20°C° 0 mm 1 mps 706 mmHg 52%
    10:00 +22°C° 0 mm 1 mps 707 mmHg 41%
    11:00 +23°C° 0 mm 1 mps 707 mmHg 38%
    12:00 +24°C° 0 mm 1 mps 707 mmHg 36%
    13:00 +26°C° 0 mm 2 mps 706 mmHg 33%
    14:00 +26°C° 0 mm 2 mps 706 mmHg 33%
    15:00 +26°C° 0 mm 2 mps 706 mmHg 33%
    16:00 +26°C° 0 mm 1 mps 705 mmHg 33%
    17:00 +23°C° 0 mm 2 mps 706 mmHg 42%
    18:00 +20°C° 0 mm 2 mps 706 mmHg 51%
    19:00 +18°C° 0 mm 3 mps 707 mmHg 59%
    20:00 +16°C° 0 mm 2 mps 707 mmHg 67%
    21:00 +15°C° 0 mm 2 mps 707 mmHg 75%
    22:00 +14°C° 0 mm 2 mps 708 mmHg 83%
    23:00 +14°C° 0 mm 2 mps 708 mmHg 85%

    Tomorrow, 21 February, Friday

    Time Temperature Precipitation Wind Pressure Humidity
    00:00 +14°C° 0 mm 1 mps 708 mmHg 87%
    01:00 +14°C° 0 mm 1 mps 708 mmHg 89%
    02:00 +14°C° 0 mm 1 mps 708 mmHg 87%
    03:00 +14°C° 0 mm 1 mps 708 mmHg 86%
    04:00 +15°C° 0 mm 1 mps 708 mmHg 84%
    05:00 +15°C° 0 mm 1 mps 708 mmHg 83%
    06:00 +15°C° 0 mm 1 mps 709 mmHg 82%
    07:00 +15°C° 0 mm 2 mps 709 mmHg 81%
    08:00 +18°C° 0 mm 1 mps 710 mmHg 74%
    09:00 +20°C° 0 mm 1 mps 710 mmHg 67%
    10:00 +21°C° 0 mm 1 mps 710 mmHg 59%
    11:00 +23°C° 0 mm 1 mps 710 mmHg 53%
    12:00 +25°C° 0 mm 1 mps 710 mmHg 47%
    13:00 +26°C° 0 mm 1 mps 710 mmHg 41%
    14:00 +26°C° 0 mm 2 mps 710 mmHg 42%
    15:00 +26°C° 0 mm 2 mps 709 mmHg 43%
    16:00 +26°C° 0 mm 2 mps 709 mmHg 44%
    23:00 +14°C° 0 mm 3 mps 711 mmHg 87%

    Day after tomorrow, 22 February, Saturday

    Time Temperature Precipitation Wind Pressure Humidity
    00:00 +15°C° 0 mm 2 mps 712 mmHg 84%
    01:00 +15°C° 0 mm 2 mps 712 mmHg 85%
    02:00 +15°C° 0 mm 2 mps 712 mmHg 86%
    03:00 +14°C° 0 mm 2 mps 712 mmHg 87%
    04:00 +14°C° 0 mm 2 mps 712 mmHg 89%
    05:00 +15°C° 0 mm 2 mps 712 mmHg 87%
    06:00 +15°C° 0 mm 2 mps 713 mmHg 86%
    07:00 +15°C° 0 mm 2 mps 713 mmHg 84%
    08:00 +16°C° 0 mm 2 mps 714 mmHg 81%
    09:00 +17°C° 0 mm 2 mps 714 mmHg 77%
    10:00 +18°C° 0 mm 2 mps 714 mmHg 74%
    11:00 +19°C° 0 mm 2 mps 714 mmHg 68%
    12:00 +21°C° 0 mm 2 mps 714 mmHg 63%
    13:00 +23°C° 0 mm 2 mps 713 mmHg 58%
    14:00 +24°C° 0 mm 3 mps 713 mmHg 57%
    15:00 +24°C° 0 mm 3 mps 713 mmHg 57%
    16:00 +23°C° 0 mm 4 mps 712 mmHg 56%
    17:00 +22°C° 0 mm 4 mps 712 mmHg 65%
    18:00 +20°C° 0 mm 4 mps 712 mmHg 73%
    19:00 +18°C° 0 mm 4 mps 712 mmHg 81%
    20:00 +17°C° 0 mm 3 mps 713 mmHg 84%
    21:00 +17°C° 0 mm 2 mps 713 mmHg 87%
    22:00 +16°C° 0 mm 2 mps 714 mmHg 90%
    23:00 +16°C° 0 mm 2 mps 714 mmHg 90%

    23 February, Sunday

    Time Temperature Precipitation Wind Pressure Humidity
    00:00 +16°C° 0 mm 1 mps 714 mmHg 90%
    01:00 +16°C° 0 mm 1 mps 713 mmHg 90%
    02:00 +16°C° 0 mm 1 mps 713 mmHg 89%
    03:00 +15°C° 0 mm 1 mps 713 mmHg 88%
    04:00 +15°C° 0 mm 1 mps 713 mmHg 87%
    05:00 +16°C° 0 mm 1 mps 714 mmHg 85%
    06:00 +16°C° 0 mm 1 mps 714 mmHg 83%
    07:00 +16°C° 0 mm 1 mps 714 mmHg 82%
    08:00 +19°C° 0 mm 1 mps 715 mmHg 73%
    09:00 +21°C° 0 mm 1 mps 715 mmHg 64%
    10:00 +24°C° 0 mm 1 mps 715 mmHg 55%
    11:00 +25°C° 0 mm 2 mps 715 mmHg 50%
    12:00 +26°C° 0 mm 2 mps 714 mmHg 46%
    13:00 +27°C° 0 mm 2 mps 714 mmHg 41%
    14:00 +27°C° 0 mm 2 mps 714 mmHg 39%
    15:00 +27°C° 0 mm 1 mps 713 mmHg 38%
    16:00 +28°C° 0 mm 1 mps 712 mmHg 36%
    17:00 +26°C° 0 mm 1 mps 712 mmHg 43%
    18:00 +24°C° 0 mm 1 mps 712 mmHg 51%
    19:00 +22°C° 0 mm 1 mps 712 mmHg 58%
    20:00 +21°C° 0 mm 1 mps 713 mmHg 66%
    21:00 +20°C° 0 mm 1 mps 713 mmHg 74%
    22:00 +17°C° 0 mm 0 mps 713 mmHg 81%
    23:00 +16°C° 0 mm 0 mps 713 mmHg 82%

    24 February, Monday

    Time Temperature Precipitation Wind Pressure Humidity
    00:00 +16°C° 0 mm 0 mps 713 mmHg 83%
    01:00 +16°C° 0 mm 0 mps 713 mmHg 84%
    02:00 +15°C° 0 mm 0 mps 712 mmHg 83%
    03:00 +15°C° 0 mm 0 mps 712 mmHg 82%
    04:00 +16°C° 0 mm 1 mps 712 mmHg 81%
    05:00 +15°C° 0 mm 0 mps 712 mmHg 79%
    06:00 +16°C° 0 mm 0 mps 713 mmHg 76%
    07:00 +17°C° 0 mm 0 mps 713 mmHg 74%
    08:00 +20°C° 0 mm 0 mps 713 mmHg 64%
    09:00 +23°C° 0 mm 0 mps 713 mmHg 54%
    10:00 +28°C° 0 mm 1 mps 714 mmHg 44%
    11:00 +28°C° 0 mm 1 mps 713 mmHg 41%
    12:00 +29°C° 0 mm 1 mps 713 mmHg 38%
    13:00 +29°C° 0 mm 1 mps 712 mmHg 35%
    14:00 +28°C° 0 mm 1 mps 711 mmHg 39%
    15:00 +27°C° 0 mm 2 mps 711 mmHg 43%
    16:00 +26°C° 0 mm 2 mps 710 mmHg 47%
    17:00 +25°C° 0 mm 2 mps 710 mmHg 51%
    18:00 +24°C° 0 mm 2 mps 710 mmHg 56%
    19:00 +23°C° 0 mm 2 mps 711 mmHg 60%
    20:00 +21°C° 0 mm 2 mps 711 mmHg 65%
    21:00 +20°C° 0 mm 1 mps 711 mmHg 70%
    22:00 +19°C° 0 mm 1 mps 711 mmHg 75%
    23:00 +19°C° 0 mm 1 mps 710 mmHg 79%

    25 February, Tuesday

    Time Temperature Precipitation Wind Pressure Humidity
    00:00 +18°C° 0 mm 1 mps 710 mmHg 82%
    01:00 +18°C° 0 mm 1 mps 710 mmHg 86%
    02:00 +16°C° 0 mm 1 mps 709 mmHg 87%
    03:00 +15°C° 0 mm 0 mps 709 mmHg 89%
    04:00 +15°C° 0 mm 0 mps 709 mmHg 90%
    05:00 +15°C° 0 mm 0 mps 709 mmHg 86%
    06:00 +16°C° 0 mm 0 mps 709 mmHg 83%
    07:00 +17°C° 0 mm 0 mps 709 mmHg 79%
    08:00 +21°C° 0 mm 1 mps 709 mmHg 68%
    09:00 +24°C° 0 mm 1 mps 709 mmHg 58%
    10:00 +27°C° 0 mm 2 mps 709 mmHg 47%
    11:00 +28°C° 0 mm 2 mps 709 mmHg 43%
    12:00 +29°C° 0 mm 2 mps 708 mmHg 39%
    13:00 +30°C° 0 mm 3 mps 708 mmHg 35%
    14:00 +29°C° 0 mm 3 mps 707 mmHg 37%
    15:00 +29°C° 0 mm 3 mps 707 mmHg 38%
    16:00 +28°C° 0 mm 3 mps 706 mmHg 40%
    17:00 +27°C° 0 mm 2 mps 706 mmHg 45%
    18:00 +25°C° 0 mm 2 mps 706 mmHg 50%
    19:00 +23°C° 0 mm 1 mps 706 mmHg 56%
    20:00 +22°C° 0 mm 1 mps 706 mmHg 61%
    21:00 +21°C° 0 mm 1 mps 706 mmHg 66%
    22:00 +20°C° 0 mm 1 mps 706 mmHg 70%
    23:00 +20°C° 0 mm 1 mps 705 mmHg 72%
    Show more